CW1734 Weather Reports


Display with metric or nautical units.
time (UTC)temp
F
wind
direction
speed
MPH
gust
MPH
rain 1hr
in
rain 24hr
in
rain mn
in
humidity
%
barometer
mb
20260510141904 55 354 9.0 15.0 0.00 0.07 0.07 81 1014.3
20260510140906 55 26 8.0 13.0 0.00 0.07 0.07 82 1014.3
20260510135904 54 35 8.0 17.0 0.00 0.07 0.07 83 1014.3
20260510135404 54 32 10.0 16.0 0.00 0.07 0.07 83 1014.3
20260510134905 54 30 10.0 14.0 0.00 0.07 0.07 84 1014.3
20260510134404 53 58 9.0 18.0 0.00 0.07 0.07 85 1014.3
20260510133405 53 41 9.0 13.0 0.00 0.07 0.07 86 1014.3
20260510132905 53 46 7.0 14.0 0.00 0.07 0.07 86 1014.4
20260510132405 53 39 6.0 12.0 0.01 0.07 0.07 87 1014.4
20260510131405 53 34 6.0 12.0 0.01 0.07 0.07 87 1014.4
20260510130904 52 46 5.0 12.0 0.01 0.07 0.07 87 1015.0
20260510130405 52 60 7.0 12.0 0.02 0.07 0.07 87 1015.0
20260510125905 52 37 10.0 16.0 0.02 0.07 0.07 87 1015.0
20260510125405 52 41 10.0 18.0 0.02 0.07 0.07 87 1015.0
20260510124904 52 43 6.0 13.0 0.02 0.07 0.07 87 1015.0
20260510124404 52 21 6.0 14.0 0.03 0.07 0.07 87 1015.0
20260510123905 52 29 7.0 15.0 0.03 0.07 0.07 88 1015.0
20260510123404 51 32 10.0 15.0 0.03 0.07 0.07 87 1015.0
20260510122904 52 23 8.0 15.0 0.04 0.07 0.07 88 1015.0
20260510122404 52 11 7.0 13.0 0.04 0.06 0.06 88 1015.0
20260510121904 51 27 7.0 12.0 0.05 0.06 0.06 88 1015.0
20260510120904 51 24 7.0 13.0 0.06 0.06 0.06 87 1015.7
20260510120404 52 25 7.0 13.0 0.05 0.06 0.06 87 1015.7
20260510115904 52 340 7.0 15.0 0.05 0.06 0.06 86 1015.7
20260510115404 52 30 5.0 12.0 0.05 0.05 0.05 86 1015.7
20260510114905 52 36 6.0 13.0 0.05 0.05 0.05 86 1015.7
20260510114404 52 16 5.0 8.0 0.04 0.04 0.04 86 1015.7
20260510113904 52 26 6.0 10.0 0.04 0.04 0.04 85 1015.7
20260510113405 52 36 7.0 12.0 0.04 0.04 0.04 84 1015.7
20260510112904 52 45 7.0 15.0 0.03 0.03 0.03 83 1015.7
20260510112404 52 39 7.0 14.0 0.02 0.02 0.02 83 1015.7
20260510111905 52 33 7.0 14.0 0.02 0.02 0.02 82 1015.7
20260510111405 53 54 7.0 14.0 0.02 0.02 0.02 82 1015.7
20260510110904 53 66 6.0 14.0 0.01 0.01 0.01 81 1015.7
20260510110404 53 37 4.0 15.0 0.01 0.01 0.01 81 1015.7
20260510105904 53 46 10.0 20.0 0.01 0.01 0.01 79 1015.7
20260510105405 53 34 7.0 13.0 0.00 0.00 0.00 79 1015.7
20260510104904 53 47 9.0 17.0 0.00 0.00 0.00 78 1015.7
20260510104405 53 42 7.0 20.0 0.00 0.00 0.00 78 1015.7
20260510103404 53 40 8.0 18.0 0.00 0.00 0.00 78 1015.7
20260510102904 53 36 9.0 15.0 0.00 0.00 0.00 78 1015.7
20260510102404 53 38 9.0 20.0 0.00 0.00 0.00 78 1015.7
20260510100905 53 24 10.0 16.0 0.00 0.00 0.00 77 1015.7
20260510100404 54 26 8.0 14.0 0.00 0.00 0.00 77 1015.7
20260510095905 54 38 10.0 17.0 0.00 0.00 0.00 75 1015.7
20260510095404 54 31 9.0 14.0 0.00 0.00 0.00 74 1015.7
20260510093904 54 39 9.0 14.0 0.00 0.00 0.00 73 1015.7
20260510093405 54 38 10.0 14.0 0.00 0.00 0.00 72 1015.7
20260510092905 54 35 11.0 16.0 0.00 0.00 0.00 73 1015.7
20260510092404 54 43 9.0 17.0 0.00 0.00 0.00 73 1015.7
20260510091904 54 30 9.0 17.0 0.00 0.00 0.00 74 1015.6
20260510091405 54 29 10.0 16.0 0.00 0.00 0.00 73 1015.7
20260510090904 54 29 9.0 20.0 0.00 0.00 0.00 74 1015.7
20260510085904 54 28 7.0 15.0 0.00 0.00 0.00 74 1015.7
20260510085404 54 17 6.0 13.0 0.00 0.00 0.00 74 1015.7
20260510084904 54 29 9.0 15.0 0.00 0.00 0.00 74 1015.7
20260510084405 54 30 10.0 16.0 0.00 0.00 0.00 74 1015.7
20260510083904 53 26 12.0 17.0 0.00 0.00 0.00 74 1015.7
20260510083404 53 29 8.0 15.0 0.00 0.00 0.00 75 1015.7
20260510082404 53 18 11.0 22.0 0.00 0.00 0.00 75 1015.7
20260510081904 53 12 10.0 16.0 0.00 0.00 0.00 75 1015.7
20260510080904 53 32 9.0 15.0 0.00 0.00 0.00 75 1015.7
20260510080404 53 28 7.0 14.0 0.00 0.00 0.00 76 1015.7
20260510075905 53 28 8.0 14.0 0.00 0.00 0.00 76 1015.7
20260510075405 53 32 8.0 21.0 0.00 0.00 0.00 76 1015.7
20260510074904 53 38 10.0 16.0 0.00 0.00 0.00 76 1015.7
20260510074404 53 36 9.0 14.0 0.00 0.00 0.00 76 1015.7
20260510073904 53 30 9.0 17.0 0.00 0.00 0.00 76 1015.6
20260510073405 53 27 6.0 13.0 0.00 0.00 0.00 76 1015.6
20260510072904 53 23 9.0 15.0 0.00 0.00 0.00 76 1015.6
20260510072404 53 32 7.0 12.0 0.00 0.00 0.00 77 1015.7
20260510071905 53 26 9.0 15.0 0.00 0.00 0.00 77 1015.7
20260510071405 52 40 7.0 14.0 0.00 0.00 0.00 77 1015.6
20260510070905 52 19 9.0 16.0 0.00 0.00 0.00 77 1015.6
20260510070404 52 29 7.0 13.0 0.00 0.00 0.00 77 1015.6
20260510065404 52 43 12.0 21.0 0.00 0.00 0.00 77 1015.6
20260510064904 52 35 9.0 16.0 0.00 0.00 0.00 77 1015.6
20260510064404 52 27 9.0 16.0 0.00 0.00 0.00 78 1015.6
20260510063904 52 36 10.0 16.0 0.00 0.00 0.00 78 1015.6
20260510063404 52 21 10.0 18.0 0.00 0.00 0.00 78 1015.6
20260510062904 52 32 7.0 18.0 0.00 0.00 0.00 78 1015.6
20260510061404 51 26 9.0 13.0 0.00 0.00 0.00 79 1015.6
20260510060404 51 36 9.0 14.0 0.00 0.00 0.00 79 1015.6
20260510055904 51 29 10.0 16.0 0.00 0.00 0.00 79 1015.6
20260510054905 51 22 7.0 13.0 0.00 0.00 0.00 79 1015.6
20260510053904 51 33 8.0 16.0 0.00 0.00 0.00 79 1015.6
20260510053404 51 23 8.0 12.0 0.00 0.00 0.00 79 1015.6
20260510052905 51 31 6.0 14.0 0.00 0.00 0.00 79 1015.6
20260510052405 51 28 10.0 15.0 0.00 0.00 0.00 79 1015.6
20260510051905 51 21 7.0 14.0 0.00 0.00 0.00 79 1015.6
20260510051404 51 28 10.0 16.0 0.00 0.00 0.00 79 1015.6
20260510050904 51 33 14.0 15.0 0.00 0.00 0.00 80 1015.6
20260510050404 51 29 8.0 13.0 0.00 0.00 0.00 79 1015.5
20260510045904 51 23 9.0 16.0 0.00 0.00 0.00 79 1015.5
20260510045404 51 16 9.0 16.0 0.00 0.00 0.00 79 1015.5
20260510044904 51 25 9.0 15.0 0.00 0.00 0.00 79 1015.5
20260510044404 51 36 10.0 17.0 0.00 0.00 0.00 79 1015.5
20260510043905 51 24 8.0 16.0 0.00 0.00 0.00 78 1015.5
20260510043404 51 27 7.0 14.0 0.00 0.00 0.00 77 1015.5
20260510042904 52 22 9.0 15.0 0.00 0.00 0.00 77 1015.6
20260510041904 52 23 8.0 14.0 0.00 0.00 0.00 75 1015.6
20260510041404 52 21 7.0 15.0 0.00 0.00 0.00 74 1015.6
20260510040904 52 26 9.0 15.0 0.00 0.00 0.00 74 1015.6
20260510040406 52 36 8.0 12.0 0.00 0.00 0.00 73 1015.6
20260510035904 52 23 7.0 14.0 0.00 0.00 0.00 72 1015.6
20260510035404 52 26 6.0 13.0 0.00 0.00 0.00 72 1015.6
20260510034904 52 21 9.0 16.0 0.00 0.00 0.00 71 1015.7
20260510034404 53 31 8.0 15.0 0.00 0.00 0.00 70 1015.7
20260510033404 53 36 6.0 16.0 0.00 0.00 0.00 69 1015.8
20260510032904 53 30 7.0 12.0 0.00 0.00 0.00 69 1015.8
20260510032404 53 29 7.0 13.0 0.00 0.00 0.00 69 1015.8
20260510031904 54 29 8.0 15.0 0.00 0.00 0.00 68 1015.8
20260510030904 54 26 10.0 15.0 0.00 0.00 0.00 68 1015.8
20260510030404 54 28 10.0 15.0 0.00 0.00 0.00 68 1015.8
20260510025904 54 23 10.0 17.0 0.00 0.00 0.00 67 1015.8
20260510025405 54 30 8.0 15.0 0.00 0.00 0.00 67 1015.8
20260510024904 54 31 6.0 13.0 0.00 0.00 0.00 66 1015.8
20260510024404 54 31 8.0 17.0 0.00 0.00 0.00 66 1015.8
20260510023904 55 45 5.0 12.0 0.00 0.00 0.00 66 1015.6
20260510023405 55 34 7.0 16.0 0.00 0.00 0.00 65 1015.6
20260510022904 55 46 9.0 16.0 0.00 0.00 0.00 64 1015.7
20260510022404 55 44 8.0 18.0 0.00 0.00 0.00 64 1015.6
20260510021904 55 40 7.0 13.0 0.00 0.00 0.00 63 1015.7
20260510021404 55 35 7.0 15.0 0.00 0.00 0.00 63 1015.7
20260510020904 55 37 6.0 15.0 0.00 0.00 0.00 63 1015.8
20260510020404 55 28 7.0 15.0 0.00 0.00 0.00 62 1015.8
20260510015906 55 41 7.0 12.0 0.00 0.00 0.00 62 1015.8
20260510014904 55 37 9.0 14.0 0.00 0.00 0.00 61 1015.9
20260510014404 55 32 9.0 14.0 0.00 0.00 0.00 61 1015.9
20260510013904 55 41 6.0 12.0 0.00 0.00 0.00 62 1015.9
20260510013404 55 42 6.0 12.0 0.00 0.00 0.00 62 1015.7
20260510012904 55 46 7.0 14.0 0.00 0.00 0.00 61 1015.7
20260510012404 55 45 6.0 15.0 0.00 0.00 0.00 61 1015.7
20260510011905 55 37 5.0 12.0 0.00 0.00 0.00 61 1015.7
20260510011404 55 39 7.0 17.0 0.00 0.00 0.00 61 1015.9
20260510010904 55 39 7.0 17.0 0.00 0.00 0.00 60 1015.9
20260510010404 55 43 7.0 13.0 0.00 0.00 0.00 61 1015.9
20260510005904 55 43 5.0 13.0 0.00 0.00 0.00 60 1015.9
20260510004904 56 46 6.0 12.0 0.00 0.00 0.00 60 1016.0
20260510004405 56 39 6.0 14.0 0.00 0.00 0.00 60 1016.0
20260510003905 56 43 6.0 13.0 0.00 0.00 0.00 60 1016.0
20260510003405 56 42 5.0 10.0 0.00 0.00 0.00 60 1016.0
20260510002904 56 52 6.0 12.0 0.00 0.00 0.00 60 1016.0
20260510002404 56 46 6.0 10.0 0.00 0.00 0.00 59 1016.0
20260510001904 56 51 4.0 12.0 0.00 0.00 0.00 59 1015.9
20260510000904 56 51 5.0 12.0 0.00 0.00 0.00 58 1015.8
20260510000404 56 45 6.0 12.0 0.00 0.00 0.00 58 1015.8
20260509235904 56 56 5.0 8.0 0.00 0.00 0.00 58 1015.8
20260509235404 56 67 5.0 12.0 0.00 0.00 0.00 57 1015.8
20260509234904 56 58 5.0 13.0 0.00 0.00 0.00 56 1015.8
20260509234404 56 46 6.0 12.0 0.00 0.00 0.00 56 1015.6
20260509233904 56 47 6.0 12.0 0.00 0.00 0.00 56 1015.6
20260509233405 56 56 5.0 12.0 0.00 0.00 0.00 55 1015.6
20260509232904 57 53 5.0 10.0 0.00 0.00 0.00 55 1015.6
20260509232404 57 51 5.0 13.0 0.00 0.00 0.00 54 1015.6
20260509231404 57 46 4.0 12.0 0.00 0.00 0.00 54 1015.6
20260509230905 57 39 6.0 9.0 0.00 0.00 0.00 54 1015.6
20260509230404 57 58 5.0 12.0 0.00 0.00 0.00 53 1015.6
20260509225904 57 72 6.0 15.0 0.00 0.00 0.00 52 1015.6
20260509225404 57 61 6.0 13.0 0.00 0.00 0.00 52 1015.6
20260509224904 57 62 5.0 12.0 0.00 0.00 0.00 52 1015.6
20260509224405 58 56 8.0 15.0 0.00 0.00 0.00 52 1015.6
20260509223905 58 63 7.0 14.0 0.00 0.00 0.00 52 1015.6
20260509223405 58 56 5.0 12.0 0.00 0.00 0.00 53 1015.5
20260509222904 58 40 7.0 13.0 0.00 0.00 0.00 52 1015.7
20260509221904 58 64 6.0 14.0 0.00 0.00 0.00 52 1015.7
20260509220904 58 61 6.0 14.0 0.00 0.00 0.00 53 1015.7
20260509220404 58 70 6.0 14.0 0.00 0.00 0.00 53 1015.7
20260509215904 58 51 5.0 12.0 0.00 0.00 0.00 53 1015.6
20260509215404 58 52 5.0 8.0 0.00 0.00 0.00 54 1015.6
20260509214905 58 66 7.0 13.0 0.00 0.00 0.00 56 1015.6
20260509214404 58 49 5.0 12.0 0.00 0.00 0.00 55 1015.5
20260509213904 58 47 4.0 8.0 0.00 0.00 0.00 54 1015.5
20260509213405 58 46 5.0 9.0 0.00 0.00 0.00 54 1015.5
20260509212904 58 51 6.0 12.0 0.00 0.00 0.00 52 1015.5
20260509212404 58 47 5.0 12.0 0.00 0.00 0.00 51 1015.2
20260509211904 59 46 5.0 10.0 0.00 0.00 0.00 52 1015.2
20260509210904 59 33 6.0 12.0 0.00 0.00 0.00 51 1015.2
20260509210404 59 45 5.0 12.0 0.00 0.00 0.00 51 1015.2
20260509205904 59 52 5.0 13.0 0.00 0.00 0.00 51 1015.2
20260509205404 59 32 7.0 12.0 0.00 0.00 0.00 53 1015.2
20260509204904 59 32 6.0 13.0 0.00 0.00 0.00 54 1015.2
20260509203904 60 39 5.0 12.0 0.00 0.00 0.00 53 1015.2
20260509203404 60 71 5.0 13.0 0.00 0.00 0.00 54 1015.2
20260509202905 60 49 7.0 12.0 0.00 0.00 0.00 56 1014.5
20260509202404 60 38 5.0 12.0 0.00 0.00 0.00 58 1014.5
20260509201904 61 40 5.0 12.0 0.00 0.00 0.00 58 1014.5
20260509201405 61 50 6.0 12.0 0.00 0.00 0.00 57 1014.5
20260509200904 61 47 5.0 12.0 0.00 0.00 0.00 57 1014.5
20260509195905 62 48 7.0 15.0 0.00 0.00 0.00 58 1014.5
20260509194905 62 60 5.0 12.0 0.00 0.00 0.00 58 1014.5
20260509194404 62 61 7.0 13.0 0.00 0.00 0.00 58 1014.5
20260509193905 63 49 7.0 13.0 0.00 0.00 0.00 57 1014.4
20260509193404 63 48 6.0 13.0 0.00 0.00 0.00 57 1014.4
20260509192904 63 35 5.0 10.0 0.00 0.00 0.00 58 1014.5
20260509192404 63 53 6.0 12.0 0.00 0.00 0.00 58 1014.5
20260509191904 63 62 5.0 12.0 0.00 0.00 0.00 60 1014.5
20260509191404 63 49 5.0 10.0 0.00 0.00 0.00 60 1014.5
20260509190904 63 66 6.0 12.0 0.00 0.00 0.00 60 1014.2
20260509190404 63 52 3.0 9.0 0.00 0.00 0.00 61 1014.2
20260509185904 64 47 5.0 8.0 0.00 0.00 0.00 60 1014.2
20260509185404 64 50 3.0 7.0 0.00 0.00 0.00 60 1014.2
20260509184904 64 66 4.0 10.0 0.00 0.00 0.00 59 1014.2
20260509184404 64 69 2.0 5.0 0.00 0.00 0.00 59 1014.2
20260509183904 64 64 1.0 3.0 0.00 0.00 0.00 58 1014.2
20260509183404 64 73 3.0 7.0 0.00 0.00 0.00 58 1014.3
20260509182904 64 77 2.0 3.0 0.00 0.00 0.00 57 1014.3
20260509182405 64 79 2.0 7.0 0.00 0.00 0.00 57 1014.3
20260509181904 64 74 2.0 5.0 0.00 0.00 0.00 56 1014.3
20260509181405 64 27 1.0 5.0 0.00 0.00 0.00 56 1014.3
20260509180904 64 74 2.0 7.0 0.00 0.00 0.00 55 1014.3
20260509180404 65 96 2.0 5.0 0.00 0.00 0.00 55 1014.3
20260509175904 65 69 2.0 5.0 0.00 0.00 0.00 54 1014.3
20260509175404 65 101 4.0 7.0 0.00 0.00 0.00 54 1014.3
20260509174404 65 72 4.0 8.0 0.00 0.00 0.00 52 1014.3
20260509173904 66 82 2.0 7.0 0.00 0.00 0.00 55 1014.3
20260509173404 66 90 2.0 6.0 0.00 0.00 0.00 53 1014.3
20260509172904 66 69 1.0 6.0 0.00 0.00 0.00 52 1014.3
20260509172404 66 93 3.0 8.0 0.00 0.00 0.00 50 1014.3
20260509171904 66 85 4.0 8.0 0.00 0.00 0.00 50 1014.3
20260509171404 67 88 4.0 9.0 0.00 0.00 0.00 48 1014.3
20260509170904 67 83 4.0 12.0 0.00 0.00 0.00 49 1014.3
20260509170404 68 97 2.0 8.0 0.00 0.00 0.00 51 1014.3
20260509165904 67 101 4.0 10.0 0.00 0.00 0.00 50 1014.3
20260509165404 67 72 1.0 5.0 0.00 0.00 0.00 50 1014.3
20260509164905 67 81 5.0 9.0 0.00 0.00 0.00 50 1014.3
20260509164404 67 75 3.0 8.0 0.00 0.00 0.00 52 1014.3
20260509163904 67 66 3.0 7.0 0.00 0.00 0.00 53 1014.3
20260509163404 67 106 3.0 7.0 0.00 0.00 0.00 52 1014.4
20260509162404 67 79 3.0 7.0 0.00 0.00 0.00 52 1014.4
20260509161904 67 71 6.0 12.0 0.00 0.00 0.00 51 1014.4
20260509161404 67 58 5.0 12.0 0.00 0.00 0.00 51 1014.4
20260509160404 67 75 3.0 12.0 0.00 0.00 0.00 54 1014.4
20260509155904 67 38 1.0 6.0 0.00 0.00 0.00 53 1014.4
20260509155404 67 87 4.0 14.0 0.00 0.00 0.00 52 1014.4
20260509154905 67 66 4.0 8.0 0.00 0.00 0.00 52 1014.4
20260509154404 67 78 4.0 10.0 0.00 0.00 0.00 50 1014.4
20260509153904 67 80 6.0 10.0 0.00 0.00 0.00 50 1014.5
20260509153404 68 90 3.0 9.0 0.00 0.00 0.00 51 1014.5
20260509152904 68 94 3.0 8.0 0.00 0.00 0.00 53 1014.5
20260509151405 68 85 6.0 13.0 0.00 0.00 0.00 51 1014.7
20260509150405 68 95 4.0 12.0 0.00 0.00 0.00 51 1015.1
20260509145904 69 142 6.0 12.0 0.00 0.00 0.00 49 1015.1
20260509145404 69 90 5.0 13.0 0.00 0.00 0.00 50 1015.1
20260509144404 69 89 5.0 12.0 0.00 0.00 0.00 50 1015.1
20260509143904 69 99 7.0 13.0 0.00 0.00 0.00 48 1015.1
20260509143404 69 85 4.0 8.0 0.00 0.00 0.00 50 1015.1
20260509142904 69 142 6.0 12.0 0.00 0.00 0.00 48 1015.1
20260509142404 70 81 6.0 12.0 0.00 0.00 0.00 48 1015.1